Vertical_Velocity
-0 -1 -3 -1 -5 -2 0 -0 0 -1 -3 -2 -5 2 -0 -4 0 9 7 -8 -5 -4 -7 -3 1 -5 -1 -0 6 2 2 2
-3 -2 -5 -5 -6 1 -2 -1 0 -2 -0 -1 2 -1 -1 -4 -3 3 14 -6 -7 6 -2 -6 3 2 3 -7 -2 9 6 -3
-1 -5 -3 2 0 -2 -3 -3 -4 -2 2 -3 -3 -7 -3 -4 -4 7 2 8 8 -5 -1 -16 -6 -2 -1 -1 -2 3 5 3
-1 -0 -0 0 -0 1 -2 0 -1 -3 -3 -1 -2 -2 2 -5 -8 -7 -0 -1 -0 1 1 5 -7 -4 -1 4 3 4 2 6
-3 -2 -1 0 -0 2 -8 -3 -2 -0 1 -2 -1 -2 1 3 3 -1 -6 -10 -4 8 -1 -2 -1 -2 -3 13 5 -3 0 1
-1 0 1 0 -2 -1 -3 -3 -2 -2 -2 -1 -1 -2 -1 -2 2 5 1 -3 11 2 5 -16 17 1 17 29 6 -1 1 3
0 2 2 2 2 3 2 1 1 -0 -1 1 -0 -2 -3 -4 -5 -1 2 3 -2 -20 -5 -12 4 1 3 -28 2 1 7 0
-3 -0 -1 -2 -2 1 1 1 1 0 0 -1 -1 -1 -2 -2 -4 -6 -8 -6 -10 -7 -6 -1 -0 -16 -10 -14 -16 -15 0 -3
-5 -11 -6 -4 -7 -9 -8 -5 -6 -5 -4 -3 -1 -0 1 0 1 -1 -2 -4 0 -2 -5 -4 -0 -4 -2 5 4 -10 7 -13
4 1 2 4 -1 3 -1 2 0 -1 -0 -2 -5 -5 -4 -2 -5 -3 -5 -4 -4 3 6 1 -1 -1 4 2 -2 -5 6 6
-0 0 -3 -1 4 2 4 -1 -4 -1 1 0 0 -1 -1 -2 -0 -2 -0 -4 -1 -4 1 -0 -3 -5 -6 2 -4 -4 2 2
4 3 0 4 1 -0 -1 5 -2 0 -1 -5 -3 0 0 -4 -9 -5 3 0 -3 -5 -8 -9 -1 -0 -2 -1 -4 4 -1 3
-3 -1 -0 1 -1 1 2 3 3 3 3 1 1 2 -3 -3 -0 -7 -8 -5 -5 -0 -3 -4 -3 -6 -4 -4 -5 1 -3 -2
1 2 -4 0 -0 -0 1 -1 0 1 -2 -6 7 -2 -1 3 -5 -3 -5 -5 -3 -3 -3 -1 -2 1 -2 1 2 3 4 4
3 1 3 1 5 -1 -1 4 3 -5 -1 -0 -7 -6 -1 -2 -1 -1 2 -3 -0 -2 1 3 0 -0 2 -3 -0 0 -5 7
-0 -0 1 1 -2 1 -2 1 0 4 1 7 9 7 7 -0 -5 -5 -9 -2 0 -1 -5 -3 3 3 2 1 -3 -6 -6 -2
-1 -0 -2 -3 -4 -6 1 0 3 4 6 5 4 8 3 6 6 5 1 1 -2 3 3 4 -1 -3 -1 -4 -4 0 -2 -5
-5 -2 -2 -1 2 0 3 4 1 3 1 -5 2 -1 3 -4 -5 0 -1 5 -2 -8 -10 1 1 -0 -2 0 -4 -7 -3 -9
-6 -4 -5 0 -3 0 1 3 5 6 8 1 2 4 1 1 -3 -0 2 1 1 1 -2 -0 1 2 4 -2 1 1 4 -3
-2 -3 -4 -0 0 -1 0 1 4 8 2 -3 2 -2 -1 -2 -1 -2 0 1 -0 -4 -7 -3 -4 -4 -5 -3 -4 -4 3 8
Height
3148 3147 3146 3145 3144 3142 3141 3139 3137 3135 3134 3134 3133 3133 3134 3133 3133 3134 3133 3135 3133 3133 3133 3134 3134 3135 3137 3138 3140 3139 3140 3141
3147 3146 3145 3144 3141 3140 3138 3136 3135 3133 3132 3131 3130 3129 3129 3129 3129 3130 3130 3130 3130 3129 3128 3128 3129 3129 3132 3134 3136 3138 3136 3136
3145 3144 3143 3141 3139 3136 3134 3133 3132 3131 3131 3129 3128 3126 3126 3124 3124 3123 3123 3122 3123 3122 3121 3120 3122 3125 3126 3128 3129 3130 3131 3132
3143 3141 3140 3138 3135 3132 3129 3128 3127 3127 3127 3126 3124 3123 3122 3119 3118 3117 3115 3115 3115 3117 3114 3112 3114 3118 3120 3122 3122 3122 3124 3125
3139 3137 3135 3133 3130 3128 3124 3124 3123 3123 3121 3120 3119 3118 3117 3116 3115 3113 3111 3108 3107 3108 3108 3102 3106 3109 3113 3112 3114 3114 3117 3118
3134 3132 3130 3128 3126 3124 3122 3121 3120 3118 3117 3116 3115 3115 3113 3111 3110 3109 3106 3104 3104 3103 3093 3092 3095 3098 3101 3098 3103 3107 3110 3111
3130 3127 3126 3125 3123 3121 3119 3118 3116 3115 3114 3113 3112 3110 3109 3107 3105 3104 3102 3098 3095 3091 3087 3085 3090 3094 3092 3094 3098 3101 3102 3104
3127 3126 3125 3123 3121 3119 3117 3115 3114 3113 3111 3109 3108 3107 3105 3103 3100 3098 3096 3094 3091 3089 3088 3086 3085 3087 3087 3088 3088 3090 3094 3097
3125 3123 3122 3121 3119 3117 3114 3113 3110 3109 3107 3105 3103 3103 3101 3099 3097 3094 3093 3091 3088 3086 3085 3085 3083 3083 3084 3084 3083 3084 3086 3088
3121 3120 3118 3116 3114 3112 3110 3107 3105 3103 3102 3100 3098 3097 3096 3095 3093 3091 3089 3087 3086 3082 3080 3079 3079 3077 3076 3077 3076 3078 3077 3077
3117 3115 3112 3111 3109 3105 3104 3101 3098 3096 3094 3092 3090 3088 3087 3086 3085 3084 3081 3079 3079 3078 3075 3072 3071 3070 3071 3070 3069 3071 3072 3071
3111 3109 3107 3105 3103 3101 3098 3095 3091 3089 3086 3082 3082 3080 3079 3077 3075 3075 3074 3071 3068 3067 3067 3066 3064 3062 3062 3063 3063 3063 3063 3064
3106 3104 3101 3099 3096 3094 3090 3088 3084 3083 3079 3075 3074 3072 3070 3069 3068 3065 3063 3062 3061 3060 3058 3057 3056 3053 3052 3052 3052 3055 3056 3055
3100 3098 3092 3093 3088 3086 3084 3080 3078 3076 3071 3067 3068 3064 3064 3062 3058 3057 3054 3053 3052 3049 3047 3047 3047 3045 3043 3043 3043 3045 3045 3043
3094 3090 3088 3084 3085 3078 3076 3074 3072 3067 3065 3063 3058 3056 3055 3052 3050 3049 3046 3045 3043 3041 3039 3036 3034 3035 3033 3032 3030 3030 3029 3032
3088 3085 3081 3078 3076 3076 3070 3068 3064 3063 3060 3057 3055 3050 3043 3042 3040 3039 3037 3037 3034 3032 3030 3028 3024 3022 3022 3021 3020 3018 3017 3016
3081 3079 3076 3073 3067 3065 3063 3060 3059 3056 3054 3049 3046 3043 3039 3036 3034 3030 3028 3027 3025 3023 3020 3017 3015 3012 3011 3010 3009 3008 3008 3005
3076 3072 3069 3065 3061 3057 3055 3052 3049 3046 3042 3038 3035 3031 3029 3026 3023 3021 3018 3016 3012 3010 3009 3007 3004 3002 3001 3000 2999 2999 2998 2997
3068 3065 3061 3058 3051 3049 3045 3043 3040 3036 3032 3028 3024 3022 3020 3018 3014 3012 3008 3005 3002 2998 2996 2994 2992 2989 2987 2987 2987 2987 2987 2987
3061 3055 3050 3048 3043 3037 3035 3032 3029 3025 3020 3016 3014 3010 3008 3006 3003 3000 2997 2993 2989 2986 2983 2980 2977 2976 2975 2974 2974 2975 2976 2975